Location: Newark
(36.0000°N, 138.0000°E)
Time: 00:43:12
(UTC+00:00)

Envisat - Visible Passes

Search period start: 20 March 2019 00:00
Search period end: 30 March 2019 00:00
Orbit: 764 x 766 km, 98.2° (Epoch: 19 March)

Date Brightness Start Highest point End Pass type
(mag) Time Alt. Az. Time Alt. Az. Time Alt. Az.
20 Mar 3.8 09:50:06 10° S 09:55:02 54° W 10:00:02 10° NNW visible
21 Mar 6.0 10:55:40 10° WSW 10:57:43 12° W 10:59:46 10° WNW visible
22 Mar 5.0 10:16:17 10° SSW 10:20:40 30° W 10:25:05 10° NW visible
23 Mar 3.3 09:38:46 10° S 09:43:48 71° WSW 09:48:53 10° NNW visible
24 Mar 5.8 10:43:17 10° SW 10:46:24 16° W 10:49:31 10° NW visible
25 Mar 4.5 10:04:43 10° SSW 10:09:25 38° W 10:14:08 10° NNW visible
26 Mar 3.0 09:27:32 10° SSE 09:32:36 90° ENE 09:37:41 10° NNW visible
27 Mar 5.6 10:31:19 10° SW 10:35:05 21° W 10:38:53 10° NW visible
28 Mar 4.0 09:53:15 10° S 09:58:09 49° W 10:03:04 10° NNW visible
29 Mar 6.1 10:59:32 10° WSW 11:00:52 11° W 11:02:12 10° WNW visible
